This is the latest recevied weather packets stored in our database for station/object WI0K. If no packets are shown the sender has not sent any weather packets the latest 10 day(s).
| Time | Temp. | Humidity | Pressure | Rain* | Wind** | Luminosity | Snow |
|---|---|---|---|---|---|---|---|
| 1777900206 | 9.44° C | 46% | 1010.6 hPa | 0 mm | - | 82 W/m² | - |
| 1777899906 | 9.44° C | 47% | 1010.5 hPa | 0 mm | - | 69 W/m² | - |
| 1777899605 | 9.44° C | 46% | 1010.4 hPa | 0 mm | - | 59 W/m² | - |
| 1777899304 | 9.44° C | 46% | 1010.4 hPa | 0 mm | - | 52 W/m² | - |
| 1777899004 | 9.44° C | 44% | 1010.3 hPa | 0 mm | - | 45 W/m² | - |
| 1777898703 | 9.44° C | 44% | 1010.3 hPa | 0 mm | - | 36 W/m² | - |
| 1777898403 | 9.44° C | 44% | 1010.3 hPa | 0 mm | - | 28 W/m² | - |
| 1777898102 | 9.44° C | 44% | 1010.3 hPa | 0 mm | - | 23 W/m² | - |
| 1777897801 | 9.44° C | 44% | 1010.3 hPa | 0 mm | - | 19 W/m² | - |
| 1777897500 | 8.89° C | 45% | 824.5 hPa | 0 mm | - | 15 W/m² | - |
| 1777897200 | 8.89° C | 46% | 824.5 hPa | 0 mm | - | 13 W/m² | - |
| 1777896899 | 8.89° C | 47% | 824.5 hPa | 0 mm | - | 11 W/m² | - |
| 1777896598 | 8.89° C | 47% | 824.5 hPa | 0 mm | - | 8 W/m² | - |
| 1777896298 | 8.33° C | 48% | 824.4 hPa | 0 mm | - | 5 W/m² | - |
| 1777895997 | 8.33° C | 52% | 1010.3 hPa | 0 mm | - | 3 W/m² | - |
| 1777895696 | 8.33° C | 50% | 1010.3 hPa | 0 mm | - | 3 W/m² | - |
| 1777895396 | 8.33° C | 49% | 1010.3 hPa | 0 mm | - | 2 W/m² | - |
| 1777895095 | 8.33° C | 48% | 824.6 hPa | 0 mm | - | 1 W/m² | - |
| 1777894794 | 8.33° C | 48% | 1010.4 hPa | 0 mm | - | 0 W/m² | - |
| 1777894494 | 8.33° C | 48% | 824.6 hPa | 0 mm | - | 0 W/m² | - |
| 1777894193 | 8.33° C | 48% | 1010.4 hPa | 0 mm | - | 0 W/m² | - |
| 1777893892 | 8.33° C | 49% | 1010.5 hPa | 0 mm | - | 0 W/m² | - |
| 1777893592 | 8.33° C | 50% | 1010.5 hPa | 0 mm | - | 0 W/m² | - |
| 1777893291 | 8.33° C | 50% | 1010.5 hPa | 0 mm | - | 0 W/m² | - |
| 1777892990 | 8.33° C | 51% | 1010.6 hPa | 0 mm | - | 0 W/m² | - |
* Rain latest hour (hover to see other rain measurements)
** Current wind speed in m/s (hover to see current wind gust speed)